Home   Weather   Tokyo   Past weeks
Flag for Japan

Past Weather in Tokyo, Japan — Yesterday and Last 2 Weeks

Now
58 °F

Cool.


Feels Like: 58 °F
Forecast: 74 / 61 °F
Wind: 6 mph from Northeast

Location: Tokyo

Current Time: May 22, 2019 at 6:00:37 am

Latest Report: May 22, 2019 at 5:00 am


Visibility: N/A

Pressure: 29.69 "Hg

Humidity: 93%

Dew Point: 56 °F

Location of TokyoLocation

Past Weather in Tokyo — Graph

°F

Tokyo Temperature Yesterday

Maximum temperature yesterday: 71 °F (at 4:00 pm)
Minimum temperature yesterday: 62 °F (at 11:00 pm)
Average temperature yesterday: 67 °F

High & Low Weather Summary for the Past Weeks

 TemperatureHumidityPressure
High80 °F (May 11, 2:00 pm)100% (May 21, 5:00 am)30.25 "Hg (May 21, 5:00 am)
Low47 °F (May 8, 5:00 am)23% (May 10, 12:00 pm)29.53 "Hg (May 21, 1:00 pm)
Average66 °F66%29.98 "Hg
* Reported May 7 4:00 am — May 22 4:00 am, Tokyo. Weather by CustomWeather, © 2019

Note: Actual official high and low records may vary slightly from our data, if they occured in-between our weather recording intervals... More about our weather records

Advertising

Tokyo Weather History for the Previous 24 Hours

Scroll right to see more
 ConditionsComfort  
Time TempWeatherWind HumidityBarometerVisibility
4:00 am
Wed, May 22
58 °FCool.6 mph92%29.67 "HgN/A
3:00 am58 °FPassing clouds.2 mph94%29.65 "Hg12 mi
2:00 am60 °FCool.5 mph89%29.64 "HgN/A
1:00 am61 °FCool.3 mph99%29.64 "HgN/A
12:00 am62 °FCool.6 mph96%29.63 "HgN/A
11:00 pm
Tue, May 21
62 °FCool.3 mph98%29.63 "HgN/A
10:00 pm63 °FMild.5 mph98%29.62 "HgN/A
9:00 pm65 °FOvercast.5 mph99%29.61 "Hg6 mi
8:00 pm66 °FMild.5 mph98%29.59 "HgN/A
7:00 pm67 °FMild.6 mph100%29.57 "HgN/A
6:00 pm68 °FLow clouds.2 mph99%29.55 "Hg5 mi
5:00 pm69 °FMild.6 mph100%29.54 "HgN/A
4:00 pm71 °FMild.8 mph97%29.54 "HgN/A
3:00 pm70 °FSprinkles. Low clouds.9 mph100%29.54 "Hg2 mi
2:00 pm70 °FMild.15 mph100%29.54 "HgN/A
1:00 pm69 °FMild.17 mph100%29.53 "HgN/A
12:00 pm69 °FRain showers. Overcast.16 mph100%29.54 "Hg2 mi
11:00 am69 °FMild.14 mph99%29.56 "HgN/A
9:00 am68 °FSprinkles. Overcast.16 mph100%29.57 "Hg2 mi
8:00 am67 °FMild.13 mph100%29.60 "HgN/A
7:00 am67 °FMild.10 mph100%29.65 "HgN/A
6:00 am66 °FRain showers. Overcast.9 mph100%29.67 "Hg2 mi
Weather by CustomWeather, © 2019

See weather overview